#datint,netname,site,siteID,timestamp,IntT,BattV,AirT2,AirT,AirT_Avg,AirT_Max,AirT_Min,RH_Avg,RH_Max,RH_Min,EA_Avg,Td_Avg,Td_Max,Td_Min,WindS_Smp,WindS_Avg,WindD_Avg,WindD_SD,WindS_Max,ETo,ETr,SoilT4,SoilT8,SoilVWC8,SolarW_Avg,wetstate_Avg,wetT_Avg,Precip_accum,Precip_WPG,Precip_TB
15min,AgWx,beryljct,423,21MAR2018:01:00:00,43.3,12.89,45.5,45.5,44.9,45.5,44.0,39,42,37,0.392,21.6,22.5,20.8,7.958,6.7,230,5.8,9.5,0.00029,0.00038,42.2,42.0,24,0,0,45.3,13.11,0.00,0.00
15min,AgWx,beryljct,423,21MAR2018:01:15:00,44.3,12.88,45.7,45.0,45.5,45.7,45.0,37,39,36,0.397,20.9,21.8,20.1,5.7,6.6,207,7.8,8.4,0.00030,0.00040,42.1,42.0,24,0,0,45.6,13.11,0.00,0.00
15min,AgWx,beryljct,423,21MAR2018:01:30:00,44.5,12.88,44.1,43.3,44.0,45.0,43.3,41,44,38,0.414,21.8,22.6,21.0,2.74,3.4,188,6.4,5.7,0.00008,0.00014,42.0,42.0,24,0,0,43.5,13.11,0.00,0.00
15min,AgWx,beryljct,423,21MAR2018:01:45:00,44.1,12.87,42.9,42.3,42.7,43.2,42.2,45,47,43,0.422,22.7,23.4,22.1,3.924,3.2,194,8.0,4.5,0.00005,0.00009,41.9,42.0,24,0,0,42.1,13.11,0.00,0.00
15min,AgWx,beryljct,423,21MAR2018:02:00:00,43.6,12.87,42.0,41.6,41.7,42.3,41.1,49,52,46,0.461,23.9,25.1,23.0,0.921,2.9,196,8.0,4.2,0.00001,0.00005,41.8,42.0,24,0,0,41.8,13.11,0.00,0.00
15min,AgWx,beryljct,423,21MAR2018:02:15:00,43.4,12.87,42.3,42.9,41.8,42.9,41.0,50,56,45,0.427,24.7,26.9,22.8,3.288,3.1,169,14,4.5,0.00002,0.00005,41.7,42.0,24,0,0,42.3,13.11,0.00,0.00
15min,AgWx,beryljct,423,21MAR2018:02:30:00,43.6,12.86,45.2,45.4,44.5,45.5,42.7,40,47,36,0.375,21.4,23.7,19.9,8.05,6.5,211,10,9.5,0.00027,0.00036,41.6,42.0,24,0,0,44.6,13.11,0.00,0.00
15min,AgWx,beryljct,423,21MAR2018:02:45:00,44.4,12.86,45.7,45.3,45.4,45.6,45.2,37,38,35,0.377,20.3,21.0,19.5,8.31,7.4,209,6.1,9.6,0.00034,0.00044,41.6,41.9,24,0,0,45.6,13.11,0.00,0.00
15min,AgWx,beryljct,423,21MAR2018:03:00:00,45.1,12.86,46.0,45.7,45.6,45.9,45.3,37,39,36,0.393,20.8,21.8,20.0,7.738,7.8,211,5.7,9.7,0.00036,0.00046,41.5,41.9,24,0,0,46.2,13.11,0.00,0.00
15min,AgWx,beryljct,423,21MAR2018:03:15:00,45.7,12.85,45.8,45.1,45.6,45.8,45.0,39,41,37,0.409,21.9,23.0,21.1,6.335,7.2,202,9.2,10.0,0.00032,0.00042,41.4,41.9,24,0,0,46.3,13.11,0.00,0.00
15min,AgWx,beryljct,423,21MAR2018:03:30:00,45.8,12.85,44.5,43.7,44.3,45.2,43.6,43,46,40,0.442,23.4,24.1,22.1,5.13,6.0,185,5.7,7.8,0.00023,0.00031,41.3,41.9,24,0,0,45.2,13.11,0.00,0.00
15min,AgWx,beryljct,423,21MAR2018:03:45:00,45.4,12.84,43.7,43.2,43.4,43.7,43.2,46,48,45,0.449,24.1,24.9,23.6,5.744,4.7,181,5.0,5.8,0.00014,0.00021,41.3,41.9,24,0,0,44.3,13.11,0.00,0.00
15min,AgWx,beryljct,423,21MAR2018:04:00:00,45.2,12.83,44.0,42.9,43.7,44.4,42.9,48,55,45,0.515,25.0,27.8,24.0,7.958,7.0,172,7.6,9.3,0.00024,0.00031,41.2,41.9,24,0,0,44.6,13.11,0.00,0.00
15min,AgWx,beryljct,423,21MAR2018:04:15:00,45.0,12.83,43.5,43.1,43.1,43.3,42.9,59,62,55,0.589,29.7,31.1,27.8,4.801,6.6,184,12,8.4,0.00015,0.00020,41.2,41.8,24,0,0,44.1,13.11,0.00,0.00
15min,AgWx,beryljct,423,21MAR2018:04:30:00,44.8,12.82,43.6,43.6,43.2,43.7,42.7,61,63,58,0.568,30.6,31.1,29.9,6.05,5.4,197,8.8,7.7,0.00009,0.00013,41.1,41.8,24,0,0,44.0,13.11,0.00,0.00
15min,AgWx,beryljct,423,21MAR2018:04:45:00,44.7,12.82,43.4,42.8,43.1,43.7,42.7,60,63,58,0.578,30.3,30.9,29.8,5.787,5.7,171,10,10.7,0.00011,0.00015,41.1,41.8,24,0,0,44.0,13.11,0.00,0.00
15min,AgWx,beryljct,423,21MAR2018:05:00:00,44.4,12.82,42.7,42.3,42.4,42.8,42.2,63,63,62,0.568,30.7,30.9,30.2,3.069,4.2,174,5.7,5.4,0.00003,0.00006,41.1,41.8,24,0,0,43.2,13.12,0.00,0.00
15min,AgWx,beryljct,423,21MAR2018:05:15:00,43.9,12.81,42.1,42.0,41.8,42.3,41.5,62,64,60,0.565,30.0,30.5,29.2,4.077,3.5,175,33,6.0,-0.00000,0.00002,41.0,41.7,24,0,0,42.3,13.12,0.00,0.00
15min,AgWx,beryljct,423,21MAR2018:05:30:00,43.4,12.8,41.2,40.3,41.1,41.8,40.3,64,65,62,0.536,29.7,30.2,28.7,3.508,3.6,135,5.2,4.8,-0.00000,0.00002,41.0,41.7,24,0,0,41.1,13.11,0.00,0.00
15min,AgWx,beryljct,423,21MAR2018:05:45:00,42.5,12.8,41.1,40.9,40.7,41.3,39.6,56,64,53,0.465,26.3,28.8,25.2,3.946,4.6,159,10,6.3,0.00008,0.00012,41.0,41.7,24,0,0,40.2,13.12,0.00,0.00
15min,AgWx,beryljct,423,21MAR2018:06:00:00,41.8,12.8,39.6,38.8,39.4,40.9,38.2,59,64,54,0.481,26.2,27.1,25.2,4.538,4.4,184,9.0,5.5,0.00005,0.00009,40.9,41.7,24,0,0,39.7,13.11,0.00,0.00
15min,AgWx,beryljct,423,21MAR2018:06:15:00,41.1,12.8,38.5,38.0,38.1,38.9,37.7,62,63,60,0.477,26.4,26.9,26.0,4.384,4.1,182,6.0,4.9,0.00002,0.00005,40.9,41.7,24,0,0,38.5,13.11,0.00,0.00
15min,AgWx,beryljct,423,21MAR2018:06:30:00,40.8,12.77,39.4,39.6,38.8,39.7,38.0,58,62,55,0.458,25.5,26.0,25.0,5.283,4.9,183,5.6,5.7,0.00007,0.00011,40.8,41.6,24,0,0,39.7,13.11,0.00,0.00
15min,AgWx,beryljct,423,21MAR2018:06:45:00,41.0,12.79,41.1,41.4,40.5,41.5,39.7,52,57,49,0.440,24.5,25.8,23.4,4.757,5.3,189,7.6,6.8,0.00013,0.00018,40.8,41.6,24,0,0,41.5,13.11,0.00,0.00
15min,AgWx,beryljct,423,21MAR2018:07:00:00,41.6,12.78,41.7,41.4,41.3,41.5,41.1,50,52,48,0.445,24.1,24.9,23.3,3.157,4.0,202,3.1,5.7,0.00039,0.00068,40.7,41.6,24,0,0,42.2,13.11,0.00,0.00
15min,AgWx,beryljct,423,21MAR2018:07:15:00,42.0,12.77,42.5,42.9,42.0,42.9,41.4,46,51,42,0.398,22.9,24.6,21.5,2.083,2.2,199,6.7,3.4,0.00025,0.00044,40.6,41.6,24,0,0,42.5,13.11,0.00,0.00
15min,AgWx,beryljct,423,21MAR2018:07:30:00,42.4,12.75,42.9,42.7,42.6,42.9,42.2,46,50,43,0.421,23.3,24.8,21.7,3.354,3.2,235,14,4.2,0.00036,0.00062,40.6,41.6,24,0,0,43.3,13.11,0.00,0.00
15min,AgWx,beryljct,423,21MAR2018:07:45:00,42.9,12.76,43.4,43.0,43.0,43.5,42.7,44,46,41,0.405,22.3,23.5,21.0,4.932,4.2,257,5.5,5.1,0.00047,0.00082,40.5,41.5,24,2,0,43.9,13.11,0.00,0.00
15min,AgWx,beryljct,423,21MAR2018:08:00:00,43.3,12.76,43.3,42.4,43.0,43.4,42.4,44,50,41,0.463,22.5,25.3,21.2,2.631,3.7,238,10,5.3,0.00046,0.00078,40.5,41.5,24,8,0,44.1,13.11,0.00,0.00
15min,AgWx,beryljct,423,21MAR2018:08:15:00,43.5,12.78,43.5,43.9,43.0,43.9,42.3,45,51,41,0.399,23.1,25.4,21.6,4.538,3.6,215,24,6.1,0.00049,0.00080,40.5,41.5,24,19,0,44.4,13.11,0.00,0.00
15min,AgWx,beryljct,423,21MAR2018:08:30:00,43.9,12.77,44.2,44.0,43.9,44.2,43.6,43,46,40,0.424,22.7,24.2,21.2,3.617,3.8,259,5.3,5.0,0.00057,0.00092,40.4,41.5,24,27,0,45.6,13.11,0.00,0.00
15min,AgWx,beryljct,423,21MAR2018:08:45:00,44.3,12.8,44.9,45.1,44.4,45.3,43.9,41,45,35,0.410,22.3,24.3,19.2,3.266,4.2,244,6.2,6.8,0.00069,0.00108,40.4,41.5,24,40,0,46.4,13.11,0.00,0.00
15min,AgWx,beryljct,423,21MAR2018:09:00:00,44.9,12.82,45.5,45.2,45.2,45.4,44.9,39,43,36,0.436,22.0,23.8,20.0,2.653,3.2,258,8.8,4.5,0.00074,0.00108,40.4,41.4,24,65,0,48.2,13.11,0.00,0.00
15min,AgWx,beryljct,423,21MAR2018:09:15:00,45.5,12.83,45.9,45.8,45.5,45.9,45.3,38,44,33,0.401,21.5,24.5,18.5,0.921,2.4,250,4.8,3.4,0.00070,0.00097,40.3,41.4,24,71,0,49.0,13.11,0.00,0.00
15min,AgWx,beryljct,423,21MAR2018:09:30:00,46.0,12.86,46.4,46.2,46.0,46.3,45.8,35,39,32,0.416,19.7,22.7,18.0,1.578,0.9,244,25,2.8,0.00065,0.00079,40.3,41.4,24,95,0,51.1,13.11,0.00,0.00
15min,AgWx,beryljct,423,21MAR2018:09:45:00,46.8,12.91,46.9,46.7,46.6,46.8,46.2,36,39,34,0.400,21.4,22.7,20.1,4.494,4.3,224,10,5.7,0.00131,0.00179,40.3,41.4,24,156,0,53.0,13.11,0.00,0.00
15min,AgWx,beryljct,423,21MAR2018:10:00:00,47.7,12.99,47.4,47.3,47.0,47.4,46.7,38,39,35,0.416,22.5,23.6,20.8,3.639,4.3,203,8.8,5.8,0.00135,0.00183,40.4,41.3,24,162,0,54.2,13.11,0.00,0.00
15min,AgWx,beryljct,423,21MAR2018:10:15:00,48.5,13.09,48.0,48.0,47.7,48.2,47.3,37,39,34,0.409,22.4,24.3,20.8,5.853,5.1,196,11,7.3,0.00162,0.00218,40.4,41.2,23,209,0,56.4,13.11,0.00,0.00
15min,AgWx,beryljct,423,21MAR2018:10:30:00,49.4,13.25,48.9,48.9,48.5,49.0,47.9,34,38,31,0.398,21.6,24.1,19.5,7.936,7.0,179,12,10.3,0.00203,0.00278,40.5,41.3,24,264,0,57.2,13.11,0.00,0.00
15min,AgWx,beryljct,423,21MAR2018:10:45:00,50.0,13.34,49.6,49.6,49.3,49.9,48.8,34,37,33,0.393,22.4,24.6,20.8,7.892,8.1,192,8.7,10.7,0.00219,0.00304,40.6,41.2,23,279,0,57.8,13.11,0.00,0.00
15min,AgWx,beryljct,423,21MAR2018:11:00:00,50.7,13.39,50.2,50.1,49.9,50.4,49.5,34,36,33,0.425,22.7,24.5,21.3,8.79,8.8,191,10,12.3,0.00224,0.00315,40.7,41.3,23,267,0,57.8,13.11,0.00,0.00
15min,AgWx,beryljct,423,21MAR2018:11:15:00,51.1,13.44,50.6,50.5,50.3,50.8,50.0,34,36,33,0.437,23.2,24.3,22.2,10.72,10.2,180,11,13.9,0.00236,0.00337,40.9,41.3,23,273,0,57.0,13.11,0.00,0.00
15min,AgWx,beryljct,423,21MAR2018:11:30:00,51.7,13.61,50.8,51.3,50.5,51.3,50.1,34,35,33,0.449,23.1,24.9,22.1,10.7,9.8,179,10,13.5,0.00256,0.00356,41.0,41.3,23,330,0,58.5,13.11,0.00,0.00
15min,AgWx,beryljct,423,21MAR2018:11:45:00,52.6,14.38,51.7,52.3,51.5,52.4,50.9,34,37,33,0.462,24.3,26.7,22.6,5.217,8.3,181,13,12.5,0.00289,0.00383,41.1,41.3,23,429,0,62.9,13.11,0.00,0.00
15min,AgWx,beryljct,423,21MAR2018:12:00:00,53.7,14.35,52.7,53.2,52.4,53.2,51.4,34,37,33,0.504,25.2,27.5,23.3,5.152,7.0,204,22,12.5,0.00311,0.00398,41.3,41.3,23,489,0,66.8,13.11,0.00,0.00
15min,AgWx,beryljct,423,21MAR2018:12:15:00,54.7,14.36,53.1,53.5,52.9,53.7,52.2,36,37,35,0.510,26.5,28.2,25.2,8.75,7.8,223,18,12.1,0.00309,0.00401,41.5,41.3,23,468,0,66.3,13.11,0.00,0.00
15min,AgWx,beryljct,423,21MAR2018:12:30:00,55.4,14.32,53.5,53.3,53.3,53.9,52.6,35,37,33,0.477,26.2,27.8,25.0,5.217,6.9,200,10,10.9,0.00304,0.00391,41.7,41.3,23,460,0,67.2,13.11,0.00,0.00
15min,AgWx,beryljct,423,21MAR2018:12:45:00,56.7,14.38,55.3,56.1,55.0,57.5,53.5,34,36,32,0.512,27.4,30.5,25.1,7.015,6.3,189,23,12.5,0.00441,0.00534,42.0,41.3,23,774,0,76.9,13.11,0.00,0.00
15min,AgWx,beryljct,423,21MAR2018:13:00:00,58.4,14.27,56.3,56.8,56.2,57.7,55.2,35,36,32,0.556,28.7,31.2,27.0,5.064,9.6,226,16,15.7,0.00450,0.00569,42.2,41.3,23,751,0,73.6,13.11,0.00,0.00
15min,AgWx,beryljct,423,21MAR2018:13:15:00,59.8,14.25,57.4,57.9,57.2,58.5,55.9,33,35,30,0.499,28.1,30.4,26.0,12.21,8.7,206,23,14.8,0.00471,0.00589,42.6,41.3,23,786,0,76.4,13.12,0.00,0.00
15min,AgWx,beryljct,423,21MAR2018:13:30:00,61.3,14.27,58.6,57.6,58.5,60.0,57.0,32,34,30,0.548,28.6,31.6,26.4,14.97,13.2,193,19,18.5,0.00538,0.00696,43.0,41.3,23,891,0,75.8,13.12,0.00,0.00
15min,AgWx,beryljct,423,21MAR2018:13:45:00,61.8,14.25,58.2,59.1,58.0,59.9,57.0,32,35,29,0.511,28.3,31.1,26.2,14.16,12.7,198,19,18.0,0.00532,0.00686,43.4,41.4,23,882,0,74.8,13.11,0.00,0.00
15min,AgWx,beryljct,423,21MAR2018:14:00:00,62.6,13.81,58.8,59.0,58.7,59.8,57.5,32,35,29,0.592,28.9,31.2,27.3,14.99,12.2,207,15,19.7,0.00556,0.00710,43.9,41.4,23,934,0,76.9,13.12,0.00,0.00
15min,AgWx,beryljct,423,21MAR2018:14:15:00,62.9,13.81,58.6,58.5,58.5,59.5,57.0,32,34,30,0.505,28.9,31.1,27.1,9.23,12.0,212,12,17.2,0.00544,0.00694,44.4,41.5,23,908,0,74.7,13.11,0.00,0.00
15min,AgWx,beryljct,423,21MAR2018:14:30:00,63.4,13.79,59.2,59.1,59.1,60.1,58.2,31,33,30,0.532,28.7,31.1,27.1,16.57,11.5,208,18,17.7,0.00512,0.00659,44.9,41.5,23,830,0,74.1,13.11,0.00,0.00
15min,AgWx,beryljct,423,21MAR2018:14:45:00,63.5,13.78,58.5,57.4,58.5,59.7,57.4,32,34,31,0.532,29.1,31.1,27.7,9.8,12.1,218,11,16.3,0.00430,0.00575,45.4,41.6,23,643,0,69.9,13.11,0.00,0.00
15min,AgWx,beryljct,423,21MAR2018:15:00:00,63.0,13.83,58.4,58.8,58.2,59.4,57.0,34,35,32,0.554,29.7,31.1,27.9,10.35,11.6,219,10,15.8,0.00396,0.00533,46.0,41.7,23,588,0,68.6,13.11,0.00,0.00
15min,AgWx,beryljct,423,21MAR2018:15:15:00,62.7,13.81,58.2,57.7,58.2,59.6,57.6,33,35,32,0.537,29.5,31.0,28.3,11.29,14.2,225,14,19.4,0.00375,0.00527,46.4,41.8,23,490,0,67.3,13.11,0.00,0.00
15min,AgWx,beryljct,423,21MAR2018:15:30:00,62.3,13.85,58.5,58.2,58.4,59.3,57.9,34,35,33,0.548,29.9,31.4,29.0,17.89,14.3,218,14,19.2,0.00370,0.00522,46.9,41.9,23,486,0,67.4,13.11,0.00,0.00
15min,AgWx,beryljct,423,21MAR2018:15:45:00,61.8,13.84,58.1,58.0,58.0,58.6,57.5,34,36,33,0.570,29.7,30.9,28.4,19.44,15.6,219,8.7,20.7,0.00351,0.00508,47.2,42.0,23,428,0,65.8,13.11,0.00,0.00
15min,AgWx,beryljct,423,21MAR2018:16:00:00,62.0,13.8,58.8,59.1,58.7,60.1,57.6,35,37,34,0.600,31.0,32.8,29.8,16.81,15.3,214,9.4,21.4,0.00426,0.00585,47.5,42.1,23,643,0,68.1,13.11,0.00,0.00
15min,AgWx,beryljct,423,21MAR2018:16:15:00,62.3,13.84,58.8,58.6,58.7,60.1,57.8,35,36,33,0.586,31.1,32.7,30.2,20.21,14.5,220,9.8,20.7,0.00363,0.00515,47.7,42.2,23,504,0,66.8,13.11,0.00,0.00
15min,AgWx,beryljct,423,21MAR2018:16:30:00,61.9,13.85,58.4,58.6,58.2,58.8,57.9,35,36,34,0.588,30.7,31.7,30.0,12.25,13.1,204,8.2,19.2,0.00301,0.00439,47.9,42.4,23,361,0,65.9,13.11,0.00,0.00
15min,AgWx,beryljct,423,21MAR2018:16:45:00,61.5,13.85,58.1,57.5,58.0,58.7,57.5,36,37,35,0.581,30.9,31.8,30.2,10.26,13.2,200,11,18.2,0.00265,0.00400,48.1,42.5,23,267,0,64.2,13.11,0.00,0.00
15min,AgWx,beryljct,423,21MAR2018:17:00:00,60.7,13.88,57.4,56.8,57.2,57.6,56.8,36,37,35,0.569,30.6,31.5,30.0,11.82,12.5,220,9.0,17.7,0.00235,0.00360,48.3,42.6,23,217,0,62.1,13.11,0.00,0.00
15min,AgWx,beryljct,423,21MAR2018:17:15:00,60.0,13.71,57.2,56.7,56.9,57.3,56.6,36,37,35,0.558,30.2,31.4,29.5,14.73,12.0,205,9.0,16.6,0.00219,0.00341,48.4,42.7,23,204,0,62.1,13.11,0.00,0.00
15min,AgWx,beryljct,423,21MAR2018:17:30:00,59.5,13.85,56.8,56.5,56.6,57.1,56.4,37,38,35,0.583,30.4,31.4,29.7,10.87,11.9,199,11,15.5,0.00201,0.00320,48.5,42.9,23,184,0,61.1,13.11,0.00,0.00
15min,AgWx,beryljct,423,21MAR2018:17:45:00,59.0,13.9,56.6,56.2,56.4,56.8,56.2,38,40,37,0.595,31.4,32.4,30.8,12.98,12.1,190,10,16.6,0.00183,0.00298,48.6,43.1,23,184,0,60.6,13.11,0.00,0.00
15min,AgWx,beryljct,423,21MAR2018:18:00:00,58.7,13.46,56.6,56.3,56.4,56.7,56.1,40,42,39,0.645,32.3,33.4,31.5,7.322,11.4,193,8.6,16.7,0.00167,0.00275,48.6,43.2,23,168,0,60.2,13.11,0.00,0.00
15min,AgWx,beryljct,423,21MAR2018:18:15:00,58.4,13.28,56.3,56.2,56.1,56.3,55.9,42,43,41,0.663,33.4,34.1,32.7,10.83,11.6,199,9.6,16.3,0.00144,0.00247,48.6,43.3,24,128,0,59.4,13.11,0.00,0.00
15min,AgWx,beryljct,423,21MAR2018:18:30:00,58.0,13.21,55.9,55.5,55.7,56.1,55.5,43,44,42,0.642,33.5,34.1,33.0,11.4,11.2,191,8.4,15.7,0.00128,0.00226,48.6,43.4,24,105,0,58.4,13.11,0.00,0.00
15min,AgWx,beryljct,423,21MAR2018:18:45:00,57.4,13.14,55.4,55.0,55.3,55.5,55.0,44,46,42,0.672,33.6,34.4,32.9,5.568,8.4,196,11,15.1,0.00087,0.00165,48.6,43.6,24,77,0,57.3,13.11,0.00,0.00
15min,AgWx,beryljct,423,21MAR2018:19:00:00,56.9,13.12,55.0,54.8,54.8,55.0,54.6,46,47,45,0.674,34.5,34.8,34.2,14.1,10.2,201,10,17.9,0.00063,0.00077,48.6,43.7,24,65,0,56.3,13.12,0.00,0.00
15min,AgWx,beryljct,423,21MAR2018:19:15:00,56.3,13.07,54.5,54.0,54.3,54.8,54.0,47,48,46,0.677,34.7,35.0,34.2,10.79,10.6,192,8.3,15.9,0.00059,0.00072,48.6,43.8,24,41,0,55.0,13.11,0.00,0.00
15min,AgWx,beryljct,423,21MAR2018:19:30:00,55.6,13.06,53.8,53.3,53.6,54.0,53.2,49,49,48,0.681,34.7,34.9,34.5,7.936,9.8,184,7.4,13.2,0.00052,0.00064,48.5,43.8,23,24,0,53.7,13.11,0.00,0.00
15min,AgWx,beryljct,423,21MAR2018:19:45:00,54.9,13.02,53.2,53.0,53.0,53.3,52.7,50,51,49,0.694,34.8,35.3,34.5,8.18,7.6,195,8.1,12.1,0.00041,0.00052,48.5,44.0,24,10,0,52.3,13.11,0.00,0.00
15min,AgWx,beryljct,423,21MAR2018:20:00:00,54.3,13,53.0,52.6,52.8,53.1,52.6,52,53,51,0.710,35.6,36.0,35.1,5.48,9.4,193,8.3,14.8,0.00043,0.00054,48.4,44.1,24,1,0,52.4,13.11,0.00,0.00
15min,AgWx,beryljct,423,21MAR2018:20:15:00,53.8,12.98,52.4,51.9,52.3,52.6,51.9,54,55,53,0.722,36.0,36.2,35.8,7.738,7.3,189,9.9,10.2,0.00034,0.00044,48.3,44.2,24,0,0,51.6,13.11,0.00,0.00
15min,AgWx,beryljct,423,21MAR2018:20:30:00,53.2,12.98,51.8,51.6,51.6,51.9,51.3,56,56,55,0.727,36.3,36.5,36.1,9.19,8.7,185,7.7,13.8,0.00036,0.00045,48.2,44.0,23,0,0,50.8,13.12,0.00,0.00
15min,AgWx,beryljct,423,21MAR2018:20:45:00,52.6,12.97,51.4,50.9,51.3,51.6,50.7,57,58,56,0.728,36.4,36.5,36.3,7.892,9.2,179,8.5,12.9,0.00036,0.00045,48.1,44.2,23,0,0,50.5,13.12,0.00,0.00
15min,AgWx,beryljct,423,21MAR2018:21:00:00,51.9,12.97,50.2,50.1,50.1,50.8,49.7,59,60,57,0.721,36.3,36.4,36.1,6.577,7.3,169,6.4,9.2,0.00028,0.00036,48.0,44.4,24,0,0,49.2,13.12,0.00,0.00
15min,AgWx,beryljct,423,21MAR2018:21:15:00,51.2,12.96,50.7,50.8,50.4,51.1,49.8,58,59,56,0.711,36.0,36.2,35.7,5.459,5.5,172,6.8,8.6,0.00022,0.00031,47.9,44.2,23,0,0,48.9,13.12,0.00,0.00
15min,AgWx,beryljct,423,21MAR2018:21:30:00,50.9,12.95,51.4,50.9,51.2,51.5,50.8,56,56,55,0.714,35.9,36.0,35.8,3.091,3.4,159,13,6.1,0.00013,0.00020,47.7,44.4,24,0,0,49.4,13.12,0.00,0.00
15min,AgWx,beryljct,423,21MAR2018:21:45:00,50.7,12.95,50.0,49.1,49.9,51.1,49.1,59,62,56,0.738,36.4,36.8,35.9,2.85,4.3,113,18,6.6,0.00016,0.00023,47.6,44.6,24,0,0,49.1,13.11,0.00,0.00
15min,AgWx,beryljct,423,21MAR2018:22:00:00,50.7,12.93,51.1,50.5,50.6,51.8,49.0,58,62,55,0.727,36.5,36.8,36.1,4.056,5.1,111,16,7.8,0.00021,0.00029,47.4,44.6,24,0,0,50.0,13.11,0.00,0.00
15min,AgWx,beryljct,423,21MAR2018:22:15:00,50.9,12.93,51.6,50.7,51.3,52.1,50.5,56,58,54,0.720,36.3,36.5,36.1,5.415,4.3,155,35,7.8,0.00018,0.00026,47.3,44.7,24,0,0,50.1,13.12,0.00,0.00
15min,AgWx,beryljct,423,21MAR2018:22:30:00,50.8,12.94,51.1,50.5,50.9,51.6,49.9,57,60,55,0.728,36.3,36.5,36.1,0.702,2.9,136,31,7.0,0.00009,0.00015,47.1,44.6,24,0,0,49.8,13.12,0.00,0.00
15min,AgWx,beryljct,423,21MAR2018:22:45:00,51.0,12.93,51.3,51.3,50.9,52.1,49.4,58,62,55,0.738,36.7,37.2,36.3,1.798,2.9,104,47,7.7,0.00008,0.00014,47.0,44.8,24,0,0,50.7,13.12,0.00,0.00
15min,AgWx,beryljct,423,21MAR2018:23:00:00,51.1,12.93,51.0,51.2,50.7,51.7,49.5,59,62,56,0.731,36.8,37.3,36.3,0,1.6,123,77,4.7,-0.00001,0.00000,46.8,44.6,23,0,0,50.2,13.11,0.00,0.00
15min,AgWx,beryljct,423,21MAR2018:23:15:00,51.0,12.9,50.5,50.3,50.3,51.7,49.1,60,63,56,0.741,36.8,37.2,36.4,2.981,3.0,19,45,7.0,0.00008,0.00013,46.7,44.6,23,0,0,49.6,13.12,0.00,0.00
15min,AgWx,beryljct,423,21MAR2018:23:30:00,50.6,12.92,50.3,50.5,50.0,50.8,49.1,60,62,58,0.735,36.7,36.9,36.5,2.214,1.5,18,88,3.5,-0.00003,-0.00003,46.6,44.8,24,0,0,48.6,13.12,0.00,0.00
15min,AgWx,beryljct,423,21MAR2018:23:45:00,50.2,12.91,49.7,49.3,49.5,50.6,48.9,61,62,59,0.733,36.7,36.9,36.6,3.223,3.2,94,24,5.4,0.00009,0.00014,46.5,44.8,24,0,0,48.1,13.12,0.00,0.00
15min,AgWx,beryljct,423,22MAR2018:00:00:00,49.6,12.9,48.8,47.7,48.7,49.4,47.7,62,65,60,0.713,36.4,36.8,35.8,2.083,3.2,80,25,4.2,0.00008,0.00013,46.4,44.5,23,0,0,47.4,13.11,0.00,0.00
15min,AgWx,beryljct,423,22MAR2018:00:15:00,48.9,12.91,47.2,46.4,47.1,47.9,46.2,66,69,64,0.722,36.3,36.6,36.0,4.494,3.0,271,35,4.6,0.00005,0.00008,46.3,44.8,24,0,0,46.3,13.11,0.00,0.00
15min,AgWx,beryljct,423,22MAR2018:00:30:00,48.5,12.9,47.9,49.1,47.4,49.1,45.6,66,70,61,0.729,36.5,36.9,36.2,1.907,3.8,293,16,6.3,0.00009,0.00014,46.2,44.7,23,0,0,47.3,13.12,0.00,0.00
15min,AgWx,beryljct,423,22MAR2018:00:45:00,48.6,12.89,49.7,49.4,49.3,49.7,49.0,60,62,59,0.719,36.1,36.5,35.8,7.037,1.8,231,23,7.0,-0.00001,0.00001,46.0,44.8,24,0,0,48.5,13.11,0.00,0.00
15min,AgWx,bigpiney,439,21MAR2018:01:00:00,25.1,12.55,21.8,21.8,21.3,21.8,21.0,85,87,84,0.338,17.5,18.1,16.9,2.324,0.8,160,22,2.3,-0.00003,-0.00004,31.6,31.8,15,0,0,0.0,.,0.00,0.00
15min,AgWx,bigpiney,439,21MAR2018:01:15:00,25.1,12.53,21.8,21.2,20.9,21.7,20.7,86,87,84,0.337,17.4,17.8,17.0,4.538,4.2,209,12,5.5,0.00002,0.00003,31.6,31.8,15,0,0,0.0,.,0.00,0.00
15min,AgWx,bigpiney,439,21MAR2018:01:30:00,25.3,12.54,24.1,23.5,22.5,23.5,21.2,84,86,81,0.348,18.2,18.7,17.8,1.863,2.9,254,24,5.2,0.00001,0.00002,31.6,31.8,15,0,0,0.0,.,0.00,0.00
15min,AgWx,bigpiney,439,21MAR2018:01:45:00,25.6,12.54,24.5,24.3,24.2,24.5,23.5,80,81,79,0.356,18.9,19.1,18.5,1.6,1.5,266,12,2.0,-0.00000,-0.00000,31.6,31.8,15,0,0,0.0,.,0.00,0.00
15min,AgWx,bigpiney,439,21MAR2018:02:00:00,26.1,12.54,24.3,24.0,24.1,24.3,23.9,83,84,80,0.368,19.5,19.9,19.0,2.653,2.0,311,23,2.8,0.00000,0.00001,31.6,31.9,15,0,0,0.0,.,0.00,0.00
15min,AgWx,bigpiney,439,21MAR2018:02:15:00,26.5,12.52,23.7,23.9,23.8,24.0,23.6,85,86,84,0.367,19.9,20.2,19.6,0.986,1.7,279,29,2.8,-0.00001,-0.00001,31.6,31.8,15,0,0,0.0,.,0.00,0.00
15min,AgWx,bigpiney,439,21MAR2018:02:30:00,26.7,12.53,22.7,22.4,22.9,23.8,22.4,86,86,84,0.354,19.3,19.8,18.8,2.236,2.5,96,12,4.5,0.00000,0.00001,31.6,31.8,15,0,0,0.0,.,0.00,0.00
15min,AgWx,bigpiney,439,21MAR2018:02:45:00,26.8,12.52,23.4,23.0,22.6,23.0,22.3,87,87,86,0.360,19.2,19.5,18.8,2.017,2.1,86,8.9,2.8,-0.00001,-0.00000,31.6,31.8,15,0,0,0.0,.,0.00,0.00
15min,AgWx,bigpiney,439,21MAR2018:03:00:00,26.9,12.52,23.8,23.2,23.0,23.3,22.8,85,86,84,0.357,19.2,19.4,19.1,0.658,0.9,103,30,2.4,-0.00002,-0.00003,31.6,31.8,15,0,0,0.0,.,0.00,0.00
15min,AgWx,bigpiney,439,21MAR2018:03:15:00,27.0,12.52,24.2,23.7,23.7,23.9,23.3,83,85,81,0.369,19.2,19.9,18.7,1.622,1.0,213,19,1.8,-0.00002,-0.00002,31.6,31.9,15,0,0,0.0,.,0.00,0.00
15min,AgWx,bigpiney,439,21MAR2018:03:30:00,27.2,12.51,23.8,23.4,23.7,23.8,23.4,86,87,85,0.372,20.1,20.4,19.8,3.003,2.2,222,18,3.7,-0.00000,0.00000,31.6,31.8,15,0,0,0.0,.,0.00,0.00
15min,AgWx,bigpiney,439,21MAR2018:03:45:00,27.3,12.51,24.2,23.8,23.5,23.8,23.3,86,87,85,0.370,19.9,20.1,19.8,3.486,2.8,211,12,3.5,0.00001,0.00001,31.6,31.8,15,0,0,0.0,.,0.00,0.00
15min,AgWx,bigpiney,439,21MAR2018:04:00:00,27.5,12.5,24.3,23.9,23.9,24.0,23.8,85,86,85,0.371,20.1,20.3,19.9,2.148,2.1,240,11,3.2,-0.00000,0.00000,31.6,31.8,15,0,0,0.0,.,0.00,0.00
15min,AgWx,bigpiney,439,21MAR2018:04:15:00,27.5,12.51,24.3,24.0,23.9,24.0,23.8,84,85,84,0.371,19.8,20.0,19.7,0.877,1.8,242,5.6,2.3,-0.00001,-0.00000,31.6,31.8,15,0,0,0.0,.,0.00,0.00
15min,AgWx,bigpiney,439,21MAR2018:04:30:00,27.6,12.51,24.7,24.1,24.0,24.1,23.9,85,86,84,0.378,20.2,20.5,20.0,0.986,1.4,230,11,2.1,-0.00001,-0.00001,31.6,31.8,15,0,0,0.0,.,0.00,0.00
15min,AgWx,bigpiney,439,21MAR2018:04:45:00,27.6,12.5,24.7,24.3,24.3,24.4,24.1,85,86,85,0.378,20.4,20.6,20.3,1.732,1.0,213,1.2,2.4,-0.00002,-0.00003,31.6,31.8,15,0,0,0.0,.,0.00,0.00
15min,AgWx,bigpiney,439,21MAR2018:05:00:00,27.6,12.51,24.4,24.1,24.2,24.4,24.1,86,87,85,0.374,20.5,20.8,20.2,2.959,2.0,196,9.2,3.0,-0.00000,-0.00000,31.6,31.8,15,0,0,0.0,.,0.00,0.00
15min,AgWx,bigpiney,439,21MAR2018:05:15:00,27.6,12.5,23.4,23.1,23.6,24.1,23.1,86,87,85,0.366,19.9,20.2,19.6,3.244,3.0,203,4.1,3.6,0.00001,0.00002,31.6,31.8,15,0,0,0.0,.,0.00,0.00
15min,AgWx,bigpiney,439,21MAR2018:05:30:00,27.2,12.49,23.8,23.4,23.1,23.4,22.6,87,88,86,0.367,19.7,20.1,19.3,2.346,2.2,236,13,3.3,-0.00000,-0.00000,31.6,31.9,15,0,0,0.0,.,0.00,0.00
15min,AgWx,bigpiney,439,21MAR2018:05:45:00,26.6,12.5,24.1,23.6,23.5,23.7,23.3,84,86,83,0.358,19.4,19.9,19.0,3.376,2.6,226,7.5,3.4,0.00001,0.00001,31.5,31.8,15,0,0,0.0,.,0.00,0.00
15min,AgWx,bigpiney,439,21MAR2018:06:00:00,25.9,12.49,23.6,23.6,23.5,23.9,23.0,84,85,83,0.365,19.3,19.7,18.9,2.74,2.9,241,11,3.7,0.00001,0.00002,31.6,31.8,15,0,0,0.0,.,0.00,0.00
15min,AgWx,bigpiney,439,21MAR2018:06:15:00,25.1,12.48,22.7,22.0,23.0,23.7,21.6,86,87,84,0.352,19.4,20.1,17.7,3.091,3.1,233,4.4,3.7,0.00001,0.00002,31.6,31.8,15,0,0,0.0,.,0.00,0.00
15min,AgWx,bigpiney,439,21MAR2018:06:30:00,24.2,12.49,20.8,20.2,22.3,23.2,20.1,85,88,82,0.316,18.5,19.8,15.9,2.784,2.1,244,0.6,3.0,-0.00000,0.00000,31.6,31.8,15,0,0,0.0,.,0.00,0.00
15min,AgWx,bigpiney,439,21MAR2018:06:45:00,23.4,12.49,19.6,19.1,19.0,20.4,18.5,86,88,84,0.314,15.6,16.8,14.6,2.148,3.0,233,4.7,4.0,0.00001,0.00001,31.6,31.9,15,0,0,0.0,.,0.00,0.00
15min,AgWx,bigpiney,439,21MAR2018:07:00:00,23.2,12.47,22.0,21.5,20.4,21.5,19.1,89,90,88,0.351,17.7,18.8,16.1,4.253,3.6,222,5.6,4.9,0.00000,0.00001,31.6,31.8,15,0,0,0.0,.,0.00,0.00
15min,AgWx,bigpiney,439,21MAR2018:07:15:00,23.5,12.48,21.0,20.8,21.6,21.9,20.8,88,89,87,0.333,18.5,18.9,17.4,2.565,3.1,229,5.4,4.6,0.00000,0.00001,31.6,31.8,15,1,0,0.0,.,0.00,0.00
15min,AgWx,bigpiney,439,21MAR2018:07:30:00,23.7,12.48,21.6,21.1,20.6,21.1,19.9,88,90,87,0.340,17.6,18.3,16.8,1.82,2.5,246,20,3.3,0.00000,0.00001,31.6,31.8,15,5,0,0.0,.,0.00,0.00
15min,AgWx,bigpiney,439,21MAR2018:07:45:00,23.7,12.49,21.5,21.0,20.9,21.8,20.0,87,88,84,0.339,17.4,18.6,15.9,0.767,1.4,245,19,2.5,-0.00014,-0.00013,31.6,31.8,15,14,0,0.0,.,0.00,0.00
15min,AgWx,bigpiney,439,21MAR2018:08:00:00,23.8,12.54,22.6,22.0,21.7,22.1,21.0,88,88,87,0.357,18.6,19.1,17.9,0.767,0.7,278,26,1.5,-0.00006,-0.00006,31.6,31.9,15,28,0,0.0,.,0.00,0.00
15min,AgWx,bigpiney,439,21MAR2018:08:15:00,24.2,12.56,23.3,22.8,22.6,23.0,22.0,89,89,88,0.370,19.7,20.0,19.1,0,0.2,155,18,0.8,0.00002,0.00003,31.6,31.8,15,55,0,0.0,.,0.00,0.00
15min,AgWx,bigpiney,439,21MAR2018:08:30:00,24.8,12.63,24.5,23.9,23.3,23.9,22.9,88,88,86,0.378,20.2,20.8,19.9,0,0.2,241,7.3,1.2,0.00014,0.00015,31.6,31.8,15,77,0,0.0,.,0.00,0.00
15min,AgWx,bigpiney,439,21MAR2018:08:45:00,25.6,12.61,25.1,24.7,24.4,24.7,24.0,86,87,85,0.384,20.9,21.3,20.5,0,0.2,320,37,1.2,0.00021,0.00023,31.6,31.7,15,68,0,0.0,.,0.00,0.00